[[[{"header":{"parameterUnit":"kt","parameterCategory":2,"dx":1,"dy":1,"la1":30.253999710083008,"la2":30.299108505249023,"lo1":-89.0895004272461,"lo2":-89.04439544677734,"nx":28,"ny":28,"refTime":"2022-10-16T21:00:00:Z","depth":0,"parameterNumber":1,"parameterNumberName":"U-component_of_WINDS"},"data":[2.1015,2.1028,2.1033,2.105,2.1057,2.1069,2.1075,2.1084,2.1092,2.1108,2.1119,2.1125,2.1135,2.1149,2.1161,2.1163,2.1168,2.117,2.1173,2.1158,2.1157,2.1155,2.1152,2.1171,2.1171,2.1186,2.1187,2.1187,2.1009,2.1016,2.1026,2.1038,2.1047,2.1048,2.1058,2.1066,2.1077,2.1087,2.1096,2.1111,2.1123,2.1132,2.1145,2.1152,2.1153,2.1155,2.1154,2.1156,2.1141,2.1138,2.1154,2.1154,2.1154,2.1154,2.1154,2.1154,2.0998,2.1005,2.1014,2.1025,2.1032,2.1041,2.1048,2.1055,2.1065,2.1077,2.108,2.1093,2.1103,2.112,2.1126,2.1137,2.1135,2.1138,2.1139,2.114,2.114,2.1119,2.1139,2.1139,2.1139,2.1139,2.1139,0,2.099,2.0994,2.1002,2.1013,2.1021,2.1029,2.1037,2.1042,2.1049,2.1057,2.1068,2.1076,2.1091,2.1102,2.1114,2.112,2.112,2.1121,2.1123,2.1122,2.112,2.1121,2.1097,2.112,2.1119,2.1119,2.1119,2.1119,2.098,2.0987,2.0998,2.1004,2.1009,2.1018,2.1024,2.1029,2.1036,2.1047,2.1053,2.1064,2.1073,2.1091,2.1098,2.1108,2.1109,2.1117,2.111,2.111,2.1109,2.1108,2.111,2.1118,2.1118,2.1118,2.1118,0,2.0973,2.0979,2.0991,2.1,2.1003,2.101,2.1019,2.1026,2.1031,2.1041,2.1044,2.1051,2.1062,2.1067,2.108,2.1082,2.1097,2.1097,2.1094,2.1094,2.1103,2.1102,2.1127,2.1131,2.1111,2.1111,2.1111,0,2.0966,2.0975,2.0982,2.0988,2.0999,2.1003,2.1013,2.1018,2.1025,2.1033,2.1035,2.1042,2.1047,2.1056,2.1059,2.1072,2.1074,2.1076,2.1077,2.1076,2.1076,2.1078,2.1077,2.1077,2.1077,2.1077,2.1077,0,2.0955,2.0968,2.0979,2.0983,2.0992,2.0998,2.1002,2.1009,2.1015,2.1023,2.1027,2.1036,2.1041,2.1048,2.1052,2.1047,2.1067,2.1061,2.107,2.107,2.1072,2.1072,2.1095,2.1077,2.1077,2.1077,2.1077,0,2.0949,2.0956,2.097,2.0979,2.0982,2.0988,2.0997,2.1004,2.1011,2.1013,2.102,2.102,2.103,2.1025,2.104,2.1033,2.1038,2.1041,2.1041,2.1042,2.1034,2.1046,2.1067,2.107,2.1044,2.1044,2.1044,0,2.0936,2.095,2.0953,2.0966,2.0973,2.0973,2.0981,2.0987,2.099,2.0997,2.1001,2.1008,2.1005,2.1007,2.1014,2.1018,2.1027,2.1017,2.1028,2.1028,2.1026,2.1046,2.1047,2.1063,2.104,2.1041,2.1041,0,2.0925,2.0935,2.0937,2.0941,2.0948,2.0954,2.0963,2.097,2.0975,2.098,2.0988,2.0998,2.0996,2.1,2.1,2.1007,2.1021,2.1004,2.1004,2.1007,2.1038,2.104,2.1043,2.102,2.1021,2.1021,2.1038,0,2.0916,2.0923,2.0928,2.0935,2.094,2.0947,2.095,2.0955,2.0955,2.0957,2.0968,2.0972,2.0979,2.0982,2.0981,2.0995,2.0993,2.099,2.0983,2.0996,2.1002,2.1004,2.0975,2.0975,2.0974,2.0974,0,0,2.0902,2.0911,2.0911,2.0919,2.0923,2.0921,2.0929,2.0932,2.0939,2.0942,2.0938,2.0952,2.0955,2.0967,2.0971,2.0974,2.0977,2.0971,2.099,2.0991,2.0993,2.0999,2.1001,2.0974,2.0974,2.0974,2.0974,0,2.0898,2.0901,2.0908,2.0911,2.0916,2.0918,2.092,2.0924,2.0925,2.0934,2.0932,2.0938,2.0948,2.0952,2.0955,2.097,2.0968,2.0972,2.098,2.0988,2.099,2.0992,2.0998,2.1,2.0973,2.0973,2.0974,0,2.0889,2.0891,2.0895,2.0902,2.0904,2.0911,2.0905,2.0911,2.0916,2.0912,2.0921,2.0923,2.0927,2.0938,2.0942,2.0939,2.096,2.0952,2.0954,2.0954,2.0961,2.0964,2.0966,2.0939,2.0938,2.0938,0,0,2.0885,2.089,2.0894,2.0901,2.0903,2.0904,2.0907,2.0906,2.091,2.0911,2.0913,2.0917,2.0923,2.0926,2.0932,2.0943,2.0944,2.0948,2.095,2.0951,2.0952,2.096,2.0962,2.0938,2.0938,2.0938,0,0,2.0883,2.0887,2.0886,2.0894,2.0898,2.0901,2.0905,2.0904,2.0908,2.0907,2.0906,2.0907,2.0916,2.0918,2.0911,2.0929,2.0923,2.0924,2.0927,2.0929,2.0931,2.093,2.0904,0,0,0,0,0,2.088,2.0887,2.0886,2.0887,2.0894,2.0902,2.0903,2.0902,2.0898,2.0902,2.0903,2.0899,2.0915,2.0909,2.091,2.0917,2.0932,2.0933,2.0934,2.0941,2.0943,2.0945,0,0,0,0,0,0,2.088,2.0882,2.0885,2.0888,2.089,2.0901,2.0894,2.0894,2.0897,2.0897,2.0899,2.0899,2.0899,2.0908,2.0909,2.0916,2.0904,2.0932,2.0933,2.0934,2.0942,2.0943,2.0945,0,0,0,0,0,2.0881,2.0882,2.0894,2.0888,2.089,2.0891,2.0894,2.0894,2.0896,2.0897,2.0897,2.0895,2.0899,2.09,2.0909,2.0915,2.0903,2.0903,2.0933,2.0933,2.0934,2.0942,0,0,0,0,0,0,2.0881,2.0882,2.0894,2.0895,2.0885,2.089,2.0891,2.0894,2.0897,2.0897,2.0893,2.0892,2.0899,2.09,2.0901,2.0915,2.0902,2.0903,2.0903,2.0933,2.0934,2.0934,0,0,0,0,0,0,2.0881,2.0882,2.0894,2.089,2.089,2.0889,2.089,2.0897,2.0897,2.0892,2.0892,2.0893,2.0898,2.09,2.0901,2.0911,2.0902,2.0902,2.0902,2.0903,2.0934,2.0934,0,0,0,0,0,0,2.0882,2.0883,2.089,2.089,2.089,2.0895,2.0895,2.0903,2.0893,2.0892,2.0892,2.0892,2.0898,2.0898,2.09,2.0911,2.0911,2.0902,2.0902,2.0902,2.0902,0,0,0,0,0,0,0,2.0882,2.0876,2.0892,2.089,2.089,2.0899,2.0899,2.0899,2.0893,2.0893,2.0893,2.0892,2.0899,2.0899,2.09,2.091,0,0,2.0901,2.0902,0,0,0,0,0,0,0,0,2.0875,2.0875,2.0892,2.0892,2.0892,2.0899,2.0899,2.0899,2.0893,2.0893,2.0893,2.0892,2.0899,2.0899,2.09,0,0,0,0,0,0,0,0,0,0,0,0,0,0,0,2.0892,2.0892,0,2.0899,2.0899,2.0899,2.0893,2.0893,2.0893,2.0893,2.0899,2.0899,2.09,0,0,0,0,0,0,0,0,0,0,0,0,0,0,0,0,0,0,0,0,0,0,0,0,0,0,0,0,0,0,0,0,0,0,0,0,0,0,0,0,0,0,0,0,0,0,0,0,0,0,0,0,0,0,0,0,0,0,0,0,0,0,0,0,0,0,0,0,0]}],[{"header":{"parameterUnit":"kt","parameterCategory":2,"dx":1,"dy":1,"la1":30.253999710083008,"la2":30.299108505249023,"lo1":-89.0895004272461,"lo2":-89.04439544677734,"nx":28,"ny":28,"refTime":"2022-10-16T21:00:00:Z","depth":0,"parameterNumber":2,"parameterNumberName":"V-component_of_WINDS"},"data":[-14.5595,-14.5771,-14.5799,-14.6011,-14.607,-14.6219,-14.6279,-14.636,-14.643,-14.6606,-14.6711,-14.6751,-14.6827,-14.6955,-14.7067,-14.7081,-14.7126,-14.7172,-14.718,-14.696,-14.693,-14.6902,-14.6864,-14.7182,-14.7182,-14.7406,-14.7408,-14.7409,-14.5436,-14.5498,-14.5618,-14.5752,-14.5854,-14.5828,-14.593,-14.6016,-14.6147,-14.6234,-14.6338,-14.6493,-14.6617,-14.6677,-14.6798,-14.6877,-14.6869,-14.6908,-14.6902,-14.6914,-14.668,-14.6639,-14.6913,-14.6913,-14.6913,-14.6913,-14.6913,-14.6913,-14.5153,-14.5257,-14.5354,-14.5484,-14.5557,-14.5645,-14.5747,-14.5796,-14.591,-14.6044,-14.6048,-14.6195,-14.6282,-14.6438,-14.6494,-14.6607,-14.6566,-14.6615,-14.6627,-14.6639,-14.6651,-14.6327,-14.6628,-14.6627,-14.6627,-14.6626,-14.6626,0,-14.4953,-14.4969,-14.5084,-14.5209,-14.5304,-14.5401,-14.5493,-14.5557,-14.5591,-14.5683,-14.5817,-14.5898,-14.6055,-14.6182,-14.6299,-14.6347,-14.6322,-14.6322,-14.6355,-14.6356,-14.6344,-14.6353,-14.597,-14.6312,-14.6309,-14.6307,-14.6306,-14.6305,-14.467,-14.4787,-14.4899,-14.4976,-14.5033,-14.5157,-14.5235,-14.5256,-14.5337,-14.5451,-14.5539,-14.5666,-14.5769,-14.5976,-14.6024,-14.6139,-14.6128,-14.6257,-14.6144,-14.6142,-14.613,-14.6123,-14.6135,-14.6277,-14.6281,-14.6284,-14.6286,0,-14.4508,-14.4548,-14.4737,-14.4834,-14.4862,-14.4982,-14.5063,-14.5165,-14.5198,-14.5343,-14.5377,-14.5428,-14.5557,-14.5584,-14.5734,-14.5744,-14.594,-14.5925,-14.5911,-14.591,-14.6028,-14.6017,-14.6406,-14.6458,-14.6129,-14.6132,-14.6135,0,-14.4281,-14.4433,-14.4484,-14.4591,-14.4761,-14.4778,-14.4943,-14.4988,-14.5064,-14.5178,-14.5157,-14.5263,-14.5281,-14.539,-14.5405,-14.5569,-14.5596,-14.5613,-14.5615,-14.5616,-14.5614,-14.5655,-14.564,-14.5614,-14.5612,-14.561,-14.5609,0,-14.4023,-14.4227,-14.4402,-14.4454,-14.4569,-14.465,-14.4701,-14.4784,-14.4859,-14.4959,-14.5007,-14.5121,-14.5184,-14.5271,-14.5289,-14.5212,-14.549,-14.5387,-14.5507,-14.5507,-14.5565,-14.5561,-14.5901,-14.5606,-14.5605,-14.5605,-14.5604,0,-14.3845,-14.3951,-14.4197,-14.4293,-14.4345,-14.4458,-14.4574,-14.4678,-14.4767,-14.4784,-14.4862,-14.485,-14.4995,-14.4892,-14.5092,-14.4987,-14.5049,-14.5078,-14.5087,-14.51,-14.4984,-14.5172,-14.5493,-14.5528,-14.5115,-14.5111,-14.5107,0,-14.3539,-14.3798,-14.3814,-14.4046,-14.4169,-14.4139,-14.4265,-14.4344,-14.4378,-14.4484,-14.4519,-14.4639,-14.4568,-14.4609,-14.4704,-14.4744,-14.488,-14.4726,-14.4875,-14.4881,-14.4855,-14.5151,-14.5192,-14.542,-14.5055,-14.5061,-14.5065,0,-14.3307,-14.3447,-14.3487,-14.3547,-14.3656,-14.3757,-14.3901,-14.4025,-14.4095,-14.4185,-14.4305,-14.4472,-14.4426,-14.4492,-14.4492,-14.459,-14.4788,-14.4525,-14.4527,-14.4572,-14.5031,-14.507,-14.5108,-14.4766,-14.4773,-14.4778,-14.5024,0,-14.303,-14.3163,-14.3273,-14.3404,-14.3487,-14.3632,-14.3663,-14.3745,-14.3739,-14.3771,-14.3946,-14.4013,-14.4134,-14.4184,-14.4176,-14.4392,-14.4359,-14.4307,-14.4206,-14.4401,-14.4482,-14.4515,-14.4083,-14.408,-14.4078,-14.4076,0,0,-14.2728,-14.2918,-14.293,-14.307,-14.3141,-14.3105,-14.3258,-14.3321,-14.3448,-14.3496,-14.3441,-14.3687,-14.3743,-14.3951,-14.4014,-14.4062,-14.4103,-14.4032,-14.4308,-14.4334,-14.4358,-14.4444,-14.4479,-14.4072,-14.4071,-14.407,-14.4069,0,-14.2633,-14.2698,-14.285,-14.2917,-14.3017,-14.3043,-14.308,-14.3169,-14.3196,-14.3367,-14.3331,-14.3438,-14.3632,-14.3697,-14.3755,-14.4009,-14.3974,-14.4043,-14.4172,-14.4283,-14.4312,-14.4338,-14.4429,-14.4461,-14.4064,-14.4064,-14.4064,0,-14.241,-14.2479,-14.2555,-14.2713,-14.2777,-14.2901,-14.2806,-14.2941,-14.3033,-14.298,-14.315,-14.319,-14.3278,-14.3471,-14.3558,-14.3509,-14.3855,-14.3749,-14.3765,-14.3774,-14.3883,-14.3918,-14.3949,-14.3541,-14.3539,-14.3538,0,0,-14.2323,-14.2446,-14.2523,-14.2695,-14.2738,-14.2778,-14.2846,-14.2846,-14.2929,-14.2961,-14.3012,-14.3091,-14.3204,-14.3277,-14.3384,-14.3591,-14.3609,-14.3684,-14.3709,-14.3729,-14.3749,-14.3863,-14.3897,-14.353,-14.353,-14.353,0,0,-14.228,-14.2378,-14.2358,-14.2561,-14.2643,-14.2727,-14.283,-14.2806,-14.2905,-14.2891,-14.2893,-14.2914,-14.3094,-14.3133,-14.3034,-14.3348,-14.3248,-14.3272,-14.3315,-14.3347,-14.3371,-14.3357,-14.2942,0,0,0,0,0,-14.2198,-14.2366,-14.2347,-14.2386,-14.2582,-14.2739,-14.2764,-14.2772,-14.2703,-14.2784,-14.2823,-14.278,-14.3081,-14.2994,-14.303,-14.3139,-14.3437,-14.3454,-14.3469,-14.3574,-14.3606,-14.3634,0,0,0,0,0,0,-14.2214,-14.2261,-14.2343,-14.2434,-14.2478,-14.2733,-14.2618,-14.2624,-14.2694,-14.2684,-14.2774,-14.2783,-14.279,-14.2975,-14.3008,-14.3112,-14.2931,-14.3444,-14.3458,-14.347,-14.3585,-14.3611,-14.3634,0,0,0,0,0,-14.2226,-14.2264,-14.2577,-14.2432,-14.247,-14.2522,-14.2611,-14.2616,-14.267,-14.2729,-14.2736,-14.267,-14.2793,-14.282,-14.2994,-14.3097,-14.2908,-14.292,-14.3453,-14.3464,-14.3474,-14.3598,0,0,0,0,0,0,-14.2235,-14.2268,-14.2585,-14.2597,-14.2369,-14.2507,-14.253,-14.2609,-14.271,-14.2719,-14.2623,-14.2614,-14.2797,-14.2817,-14.2839,-14.3092,-14.289,-14.2902,-14.291,-14.3461,-14.347,-14.3478,0,0,0,0,0,0,-14.2248,-14.2278,-14.2591,-14.2511,-14.2514,-14.2494,-14.2514,-14.2661,-14.2711,-14.2598,-14.2594,-14.2618,-14.2763,-14.2816,-14.2833,-14.3062,-14.2876,-14.2888,-14.2896,-14.2901,-14.3468,-14.3475,0,0,0,0,0,0,-14.2261,-14.2287,-14.2508,-14.251,-14.2512,-14.2646,-14.2624,-14.2823,-14.2647,-14.2594,-14.2631,-14.2624,-14.2763,-14.278,-14.2829,-14.3052,-14.306,-14.2876,-14.2884,-14.289,-14.2894,0,0,0,0,0,0,0,-14.2271,-14.2093,-14.2515,-14.251,-14.2511,-14.2707,-14.271,-14.2713,-14.2646,-14.2639,-14.2633,-14.2627,-14.2809,-14.2822,-14.2835,-14.3043,0,0,-14.2875,-14.2881,0,0,0,0,0,0,0,0,-14.2082,-14.209,-14.2516,-14.2518,-14.2521,-14.2707,-14.271,-14.2712,-14.2645,-14.264,-14.2634,-14.263,-14.2812,-14.2823,-14.2833,0,0,0,0,0,0,0,0,0,0,0,0,0,0,0,-14.2516,-14.2518,0,-14.2707,-14.271,-14.2712,-14.2644,-14.264,-14.2635,-14.2631,-14.2815,-14.2824,-14.2832,0,0,0,0,0,0,0,0,0,0,0,0,0,0,0,0,0,0,0,0,0,0,0,0,0,0,0,0,0,0,0,0,0,0,0,0,0,0,0,0,0,0,0,0,0,0,0,0,0,0,0,0,0,0,0,0,0,0,0,0,0,0,0,0,0,0,0,0,0]}]]]